Sedalia, MO

1:01 AM CDT on April 29, 2017 (GMT -0500)
Sedalia Memorial

Weather History for KDMO - November, 2013

Change the Weather History Date:

Wednesday, November 20, 2013

  Actual Average Record
Temperature  
Mean Temperature 45 °F 45 °F  
Max Temperature 50 °F 53 °F 75 °F (1942)
Min Temperature 40 °F 36 °F 9 °F (1937)
Degree Days  
Heating Degree Days 20 20  
Month to date heating degree days 327 323  
Since 1 July heating degree days 625 614  
Cooling Degree Days 0 0  
Month to date cooling degree days 0 0  
Year to date cooling degree days 1485 1487  
Moisture  
Dew Point 33 °F    
Average Humidity 61    
Maximum Humidity 92    
Minimum Humidity 29    
Precipitation  
Precipitation 0.16 in 0.09 in 1.10 in (1992)
Month to date precipitation 1.35 2.12  
Year to date precipitation 38.37 37.81  
Sea Level Pressure  
Sea Level Pressure 30.01 in    
Wind  
Wind Speed 10 mph (ESE)    
Max Wind Speed 23 mph    
Max Gust Speed 28 mph    
Visibility 10 miles    
Events Rain , Thunderstorm    
T = Trace of Precipitation, MM = Missing Value Source: NWS Daily Summary

Daily Weather History Graph

Daily Weather History Graph

Search for Another Location

Airport or City:

Trip Planner

Search our weather history database for the weather conditions in past years. The results will help you decide how hot, cold, wet, or windy it might be!

Date:

Astronomy

Nov. 20, 2013 Rise Set
Actual Time 7:00 AM CST 4:55 PM CST
Civil Twilight 6:31 AM CST 5:24 PM CST
Nautical Twilight 5:59 AM CST 5:56 PM CST
Astronomical Twilight 5:27 AM CST 6:28 PM CST
Moon 7:39 PM CST (11/20) 9:26 AM CST (11/20)
Length of Visible Light 10h 52m
Length of Day
9h 55m
Waning Gibbous, 91% of the Moon is Illuminated
Nov 20
Waning Gibbous
Nov 25
Last Quarter
Dec 2
New
Dec 9
First Quarter
Dec 17
Full

Hourly Weather History & Observations

Time (CST) Temp. Windchill Dew Point Humidity Pressure Visibility Wind Dir Wind Speed Gust Speed Precip Events Conditions
12:53 AM 48.9 °F - 19.9 °F 32% 30.07 in 10.0 mi SE 11.5 mph - N/A   Overcast
1:53 AM 48.9 °F - 19.0 °F 31% 30.06 in 10.0 mi SE 13.8 mph - N/A   Overcast
2:53 AM 48.9 °F - 18.0 °F 29% 30.05 in 10.0 mi SE 15.0 mph - N/A   Overcast
3:53 AM 48.9 °F - 17.1 °F 28% 30.04 in 10.0 mi SSE 9.2 mph - N/A   Overcast
4:53 AM 48.0 °F - 18.0 °F 30% 30.03 in 10.0 mi SSE 15.0 mph - N/A   Overcast
5:53 AM 46.9 °F - 19.9 °F 34% 30.02 in 10.0 mi SSE 18.4 mph 28.8 mph N/A   Overcast
6:53 AM 44.1 °F 36.8 °F 26.1 °F 49% 30.01 in 10.0 mi SE 16.1 mph 24.2 mph 0.00 in   Mostly Cloudy
7:53 AM 43.0 °F 35.4 °F 30.0 °F 60% 30.05 in 10.0 mi South 16.1 mph 26.5 mph 0.00 in Rain Light Rain
8:53 AM 41.0 °F 35.2 °F 34.0 °F 76% 30.05 in 10.0 mi ESE 9.2 mph - 0.06 in Rain Light Rain
9:53 AM 39.9 °F 34.5 °F 36.0 °F 86% 30.06 in 6.0 mi East 8.1 mph - 0.04 in Rain Rain
10:53 AM 41.0 °F 39.0 °F 37.0 °F 86% 30.07 in 10.0 mi ENE 3.5 mph - 0.03 in Rain Light Rain
11:53 AM 39.9 °F 33.9 °F 37.9 °F 93% 30.03 in 10.0 mi East 9.2 mph - 0.03 in Rain Light Rain
12:48 PM 41.0 °F 33.5 °F 37.4 °F 87% 29.97 in 9.0 mi East 13.8 mph - 0.00 in Rain , Thunderstorm Light Rain
12:53 PM 41.0 °F 33.9 °F 37.9 °F 89% 29.98 in 9.0 mi East 12.7 mph - 0.00 in Rain , Thunderstorm Light Rain
1:03 PM 41.0 °F 33.5 °F 37.9 °F 89% 29.96 in 10.0 mi ESE 13.8 mph - 0.00 in   Overcast
1:53 PM 43.0 °F 37.2 °F 39.0 °F 86% 29.95 in 10.0 mi ESE 10.4 mph - 0.00 in   Overcast
2:53 PM 44.1 °F 38.6 °F 39.0 °F 82% 29.95 in 10.0 mi East 10.4 mph - N/A   Overcast
3:53 PM 44.1 °F 40.1 °F 39.0 °F 82% 29.95 in 10.0 mi East 6.9 mph - N/A   Overcast
4:53 PM 44.1 °F 39.5 °F 39.0 °F 82% 29.96 in 10.0 mi ESE 8.1 mph - N/A   Overcast
5:53 PM 45.0 °F 40.6 °F 39.0 °F 80% 29.97 in 10.0 mi East 8.1 mph - N/A   Overcast
6:53 PM 45.0 °F 40.6 °F 39.9 °F 82% 29.98 in 10.0 mi ESE 8.1 mph - N/A   Overcast
7:53 PM 45.0 °F 41.2 °F 39.9 °F 82% 29.99 in 10.0 mi ESE 6.9 mph - N/A   Overcast
8:53 PM 46.0 °F 42.5 °F 39.9 °F 79% 29.99 in 10.0 mi ESE 6.9 mph - N/A   Overcast
9:53 PM 46.0 °F 41.9 °F 39.9 °F 79% 30.00 in 10.0 mi SE 8.1 mph - N/A   Overcast
10:53 PM 46.0 °F 41.4 °F 39.9 °F 79% 30.00 in 10.0 mi SE 9.2 mph - N/A   Overcast
11:53 PM 46.9 °F - 39.9 °F 77% 30.01 in 10.0 mi SE 6.9 mph - N/A   Overcast